Fort Bragg, NC

10:37 PM EST on December 14, 2017 (GMT -0500)
Simmons Army Air Field

Weather History for KFBG - May, 2013

Change the Weather History Date:

Monday, May 27, 2013

  Actual Average Record
Temperature  
Mean Temperature 67 °F -  
Max Temperature 82 °F 80 °F 91 °F (1998)
Min Temperature 52 °F 61 °F 52 °F (2013)
Cooling Degree Days 2    
Growing Degree Days 17 (Base 50)    
Moisture  
Dew Point 51 °F    
Average Humidity 58    
Maximum Humidity 99    
Minimum Humidity 28    
Precipitation  
Precipitation 0.00 in - - ()
Sea Level Pressure  
Sea Level Pressure 30.24 in    
Wind  
Wind Speed 3 mph (SE)    
Max Wind Speed 10 mph    
Max Gust Speed -    
Visibility 9 miles    
Events      
Averages and records for this station are not official NWS values.
T = Trace of Precipitation, MM = Missing Value Source: NWS Daily Summary

Daily Weather History Graph

Daily Weather History Graph

Search for Another Location

Airport or City:

Trip Planner

Search our weather history database for the weather conditions in past years. The results will help you decide how hot, cold, wet, or windy it might be!

Date:

Astronomy

May. 27, 2013 Rise Set
Actual Time 6:04 AM EDT 8:21 PM EDT
Civil Twilight 5:35 AM EDT 8:50 PM EDT
Nautical Twilight 5:00 AM EDT 9:26 PM EDT
Astronomical Twilight 4:21 AM EDT 10:05 PM EDT
Moon 11:02 PM EDT (5/27) 8:38 AM EDT (5/27)
Length of Visible Light 15h 15m
Length of Day
14h 17m
Waning Gibbous, 91% of the Moon is Illuminated
May 27
Waning Gibbous
May 31
Last Quarter
Jun 8
New
Jun 16
First Quarter
Jun 23
Full

Hourly Weather History & Observations

Time (EDT) Temp. Dew Point Humidity Pressure Visibility Wind Dir Wind Speed Gust Speed Precip Events Conditions
12:58 AM 55.2 °F 54.7 °F 98% 30.24 in 10.0 mi Calm Calm - N/A   Clear
1:58 AM 54.5 °F 53.1 °F 95% 30.25 in 10.0 mi Calm Calm - N/A   Clear
2:58 AM 54.1 °F 53.8 °F 99% 30.25 in 10.0 mi Calm Calm - N/A   Clear
3:58 AM 53.2 °F 53.1 °F 99% 30.24 in 10.0 mi ENE 1.2 mph - N/A   Clear
4:58 AM 53.1 °F 52.9 °F 99% 30.25 in 10.0 mi Calm Calm - N/A   Clear
5:58 AM 52.7 °F 52.3 °F 99% 30.26 in 10.0 mi ENE 1.2 mph - N/A   Clear
6:58 AM 53.6 °F 53.1 °F 98% 30.28 in 10.0 mi Calm Calm - N/A   Clear
7:58 AM 60.1 °F 53.6 °F 79% 30.28 in 10.0 mi SSE 2.3 mph - N/A   Clear
8:58 AM 67.8 °F 51.4 °F 56% 30.29 in 10.0 mi SE 4.6 mph - N/A   Clear
9:58 AM 72.0 °F 51.4 °F 48% 30.29 in 10.0 mi South 5.8 mph - N/A   Clear
10:58 AM 75.2 °F 47.8 °F 38% 30.28 in 10.0 mi Variable 5.8 mph - N/A   Clear
11:58 AM 76.6 °F 46.8 °F 35% 30.28 in 10.0 mi East 9.2 mph - N/A   Clear
12:58 PM 77.5 °F 47.1 °F 34% 30.27 in 10.0 mi ESE 8.1 mph - N/A   Clear
1:58 PM 79.3 °F 45.7 °F 30% 30.25 in 10.0 mi Variable 2.3 mph - N/A   Clear
2:58 PM 80.2 °F 45.5 °F 29% 30.24 in 10.0 mi SE 6.9 mph - N/A   Clear
3:58 PM 80.8 °F 46.4 °F 30% 30.22 in 10.0 mi Variable 6.9 mph - N/A   Clear
4:42 PM 82.4 °F 46.4 °F 28% 30.19 in 2.5 mi SSE 9.2 mph - N/A   Haze
4:46 PM 82.4 °F 46.4 °F 28% 30.19 in 3.0 mi Variable 5.8 mph - N/A   Haze
4:58 PM 81.9 °F 46.4 °F 29% 30.19 in 10.0 mi SSE 9.2 mph - N/A   Clear
5:58 PM 81.3 °F 47.5 °F 30% 30.18 in 10.0 mi SSE 8.1 mph - N/A   Clear
6:58 PM 80.4 °F 50.2 °F 35% 30.19 in 10.0 mi South 6.9 mph - N/A   Clear
7:58 PM 78.6 °F 52.2 °F 40% 30.20 in 10.0 mi South 3.5 mph - N/A   Clear
8:58 PM 72.0 °F 58.3 °F 62% 30.20 in 10.0 mi ESE 2.3 mph - N/A   Clear
9:58 PM 72.7 °F 57.9 °F 60% 30.19 in 10.0 mi SSE 10.4 mph - N/A   Clear
10:58 PM 71.1 °F 59.7 °F 67% 30.22 in 10.0 mi SSE 8.1 mph - N/A   Clear
11:58 PM 69.3 °F 60.3 °F 73% 30.23 in 10.0 mi South 6.9 mph - N/A   Clear